COSMOS 2251 DEB, 33922

Orbit data source: Space-Track

COSMOS 2251 DEB, 33922 is space debris in LEO originally from a launch on Wed, 16 Jun 1993 UTC launched from the Plesetsk Missile And Space Complex (PKMTR). The debris from Iridium 33, an American commercial communications satellite, has been tracked extensively since its accidental collision with the defunct Russian satellite Cosmos 2251 in 2009. This event, occurring at high speed in low Earth orbit (LEO), generated thousands of pieces of space debris, significantly increasing the risk of further collisions. The Iridium 33 debris cloud has impacted space traffic management and orbital debris mitigation strategies, making it a subject of ongoing study in space situational awareness.

Loading next visibility...
Identifier
33922, 1993-036EB
Orbit
LEO
Country
Flag of CISCIS
Related business
Manufacturer
Unknown
Mission
Spacecraft
Bus & Motor
Unknown
Mass
Unknown
Launch date (UTC)
1993-06-16 (33 years ago)
Launch vehicle
Unknown
Launch site
Plesetsk Missile And Space Complex (PKMTR)
Object type
Payload
Rocket body
Debris
Shape & HBR
Unknown shape, 0.1 m
Radar Cross Section
Small (<0.1 m²)

Expand to show TLE details & history
Last TLE update: 18 hours ago

TLE from 18 hours ago
0 COSMOS 2251 DEB
1 33922U 93036EB  26121.78315740  .00001432  00000-0  37578-3 0  9990
2 33922  74.0471 245.0598 0022988 319.4128 191.2476 14.49995484906073
Epoch: 2026-05-01T18:47Z
TLE epoch observation values (Epoch: 2026-05-01T18:47:44.799Z)
Latitude
28.20578°
Longitude
-85.35872°
Altitude
744.857 km
Speed
7.477 km/s
True Right ascension
03h 45m 09s
True Declination
28° 03' 45"
Sunlit
Object was in daylight at epoch
Visualization orbit readout
Latitude
Unknown
Longitude
Unknown
Altitude
Unknown
Speed
Unknown
Apparent Right ascension
Unknown
Apparent Declination
Unknown
Sunlit
N/A
Visualization observer readout
Local Sidereal Time
20:47:11
Azimuth
Unknown
Elevation
Unknown
Doppler factor
Unknown
Orbital elements
Apogee altitude
739.596 km
Perigee altitude
706.946 km
Semi-major axis
7,101.408 km
Eccentricity
0.0023
Inclination
74.0471°
RAAN
245.0598°
Arg. of periapsis
319.4128°
True anomaly
191.19636°
Mean anomaly
191.2476°
Eccentric anomaly
191.22197°
Mean motion
3.62682 °/min
Orbital period
99.26 mins
BSTAR
0.00037578
Loading maneuver chart data...
Computing Atmospheric mass density...
Loading historical data...
Loading historical data...
Loading historical data...
Loading historical data...
Loading historical data...
Loading historical data...
Loading historical data...

Documentation

Showing up to 5 results
|